Flag for Denmark

Past Weather in Aarhus, Denmark — Yesterday and Last 2 Weeks

Now
59 °F

Sprinkles. Partly sunny.


Feels Like: 56 °F
Forecast: 61 / 51 °F
Wind: 17 mph from West

Location: Tirstrup

Current Time: Jul 6, 2020 at 3:40:22 pm

Latest Report: Jul 6, 2020 at 2:50 pm


Visibility: N/A

Pressure: 29.56 "Hg

Humidity: 77%

Dew Point: 52 °F

Location of AarhusLocation

Past Weather in Aarhus — Graph

°F

Aarhus Temperature Yesterday

Maximum temperature yesterday: 68 °F (at 2:20 pm)
Minimum temperature yesterday: 55 °F (at 11:50 pm)
Average temperature yesterday: 62 °F

High & Low Weather Summary for the Past Weeks

 TemperatureHumidityPressure
High82 °F (Jun 26, 1:50 pm)100% (Jun 22, 4:50 am)30.36 "Hg (Jun 22, 4:50 am)
Low45 °F (Jul 3, 4:50 am)32% (Jun 24, 5:50 pm)29.42 "Hg (Jul 5, 10:50 am)
Average64 °F76%29.87 "Hg
* Reported Jun 21 2:20 pm — Jul 6 2:20 pm, Aarhus. Weather by CustomWeather, © 2020

Note: Actual official high and low records may vary slightly from our data, if they occured in-between our weather recording intervals... More about our weather records

Aarhus Weather History for the Previous 24 Hours

Scroll right to see more
 ConditionsComfort  
Time TempWeatherWind HumidityBarometerVisibility
2:20 pm
Mon, Jul 6
61 °FSprinkles. Broken clouds.18 mph68%29.56 "HgN/A
1:50 pm61 °FPassing clouds.17 mph72%29.53 "HgN/A
1:20 pm61 °FRain. Broken clouds.20 mph72%29.53 "HgN/A
12:50 pm63 °FPartly sunny.18 mph59%29.53 "HgN/A
12:20 pm63 °FPassing clouds.15 mph64%29.50 "HgN/A
11:50 am59 °FPassing clouds.9 mph82%29.53 "HgN/A
11:20 am57 °FRain. Partly sunny.16 mph77%29.53 "HgN/A
10:50 am63 °FScattered clouds.15 mph68%29.50 "HgN/A
10:20 am59 °FPartly sunny.12 mph72%29.50 "HgN/A
9:50 am59 °FBroken clouds.15 mph72%29.50 "HgN/A
9:20 am57 °FPartly sunny.14 mph77%29.50 "HgN/A
8:50 am57 °FPartly sunny.12 mph77%29.50 "HgN/A
8:20 am57 °FPartly sunny.13 mph77%29.50 "HgN/A
7:50 am55 °FScattered clouds.9 mph82%29.50 "HgN/A
7:20 am55 °FPassing clouds.9 mph82%29.50 "HgN/A
6:50 am54 °FScattered clouds.9 mph88%29.47 "HgN/A
6:20 am54 °FSprinkles. Partly sunny.9 mph88%29.50 "HgN/A
5:50 am52 °FScattered clouds.9 mph94%29.50 "HgN/A
5:20 am52 °FPartly sunny.8 mph94%29.50 "HgN/A
4:50 am52 °FPassing clouds.9 mph94%29.50 "HgN/A
4:20 am52 °FSprinkles. Passing clouds.9 mph94%29.50 "HgN/A
3:50 am54 °FSprinkles. Passing clouds.6 mph88%29.50 "HgN/A
3:20 am52 °FHeavy rain. Passing clouds.15 mph88%29.53 "Hg5 mi
2:50 am55 °FPassing clouds.8 mph82%29.53 "HgN/A
2:20 am55 °FPassing clouds.9 mph82%29.53 "HgN/A
1:50 am55 °FPassing clouds.7 mph82%29.53 "HgN/A
1:20 am55 °FPassing clouds.7 mph82%29.53 "HgN/A
12:50 am55 °FPassing clouds.8 mph82%29.53 "HgN/A
12:20 am55 °FPassing clouds.8 mph82%29.56 "HgN/A
11:50 pm
Sun, Jul 5
55 °FPassing clouds.8 mph82%29.56 "HgN/A
11:20 pm57 °FPassing clouds.9 mph82%29.56 "HgN/A
10:50 pm57 °FPassing clouds.12 mph77%29.56 "HgN/A
10:20 pm57 °FPassing clouds.10 mph82%29.56 "HgN/A
9:50 pm59 °FScattered clouds.13 mph77%29.56 "HgN/A
9:20 pm59 °FPartly sunny.16 mph72%29.53 "HgN/A
8:50 pm61 °FPartly sunny.14 mph72%29.53 "HgN/A
8:20 pm61 °FPartly sunny.15 mph72%29.53 "HgN/A
7:50 pm63 °FPartly sunny.17 mph68%29.53 "HgN/A
7:20 pm63 °FScattered clouds.16 mph73%29.53 "HgN/A
6:50 pm63 °FPartly sunny.20 mph68%29.53 "HgN/A
6:20 pm64 °FPartly sunny.20 mph64%29.50 "HgN/A
5:50 pm64 °FPartly sunny.18 mph64%29.53 "HgN/A
5:20 pm66 °FPartly sunny.18 mph60%29.50 "HgN/A
4:50 pm66 °FPartly sunny.18 mph60%29.50 "HgN/A
4:20 pm66 °FPartly sunny.21 mph60%29.47 "HgN/A
3:50 pm68 °FScattered clouds.17 mph64%29.47 "HgN/A
3:20 pm66 °FPartly sunny.17 mph68%29.47 "HgN/A
Weather by CustomWeather, © 2020

See weather overview